Temperature
18 18 18 18 18 18 18 18 18 18 18 18 18 18 18 18 18 18 18 18 18 18 18 17 17 17 17 17 17 17 17 16 16 16 16 16 16 16 16 16 16 16 16
18 18 18 18 18 18 18 18 18 18 18 18 18 18 18 18 18 18 18 18 18 18 18 17 17 17 17 17 17 17 17 17 17 16 16 16 16 16 16 16 16 16 16
18 18 18 18 18 18 18 18 18 18 18 18 18 18 18 18 18 18 18 18 18 18 18 18 17 17 17 17 17 17 17 17 17 16 16 16 16 16 16 16 16 16 16
18 18 18 18 18 18 18 18 18 18 18 18 18 18 18 18 18 18 17 17 17 17 17 18 18 18 17 17 17 17 17 17 17 17 17 16 16 16 16 16 16 16 16
18 18 18 18 18 18 18 18 18 18 18 18 18 18 18 18 18 18 18 17 17 17 17 18 18 17 17 17 17 17 17 17 17 17 17 17 16 16 16 16 16 16 16
19 19 18 18 18 18 18 18 18 18 18 18 18 18 18 18 18 18 18 18 18 17 17 18 18 18 17 17 17 17 17 17 17 17 17 17 16 16 16 16 16 16 16
19 19 19 18 18 18 18 18 18 18 18 18 18 18 18 19 18 18 18 18 18 18 18 17 18 18 18 17 17 17 17 17 17 17 17 17 17 16 16 16 16 16 16
19 19 19 19 18 18 18 18 18 18 18 18 18 18 18 19 19 19 19 18 18 18 18 18 18 18 17 17 17 17 17 17 17 17 17 17 17 17 17 16 16 16 16
19 19 19 19 19 18 18 18 18 18 18 18 18 18 18 19 19 19 19 19 18 18 18 18 18 18 18 17 18 17 17 17 17 17 17 17 17 17 17 16 16 16 16
19 19 19 19 19 19 18 18 18 18 18 18 18 18 18 18 18 19 19 19 19 19 18 18 18 18 18 18 18 18 17 17 17 17 17 17 17 17 17 16 16 16 16
19 19 19 19 19 19 19 18 18 18 18 18 18 18 18 18 18 18 18 19 19 19 19 19 18 18 18 18 18 17 18 17 17 17 17 17 17 17 16 16 16 16 16
19 19 19 19 19 19 19 19 18 18 18 18 18 18 18 18 18 18 18 19 19 19 19 19 19 18 18 18 18 18 18 17 17 17 17 17 17 17 16 16 16 16 16
19 19 19 19 19 19 19 19 18 18 18 18 18 18 18 18 18 18 18 18 18 19 19 19 19 19 18 18 18 18 18 18 17 17 17 17 17 17 17 16 16 16 16
19 19 19 19 19 19 18 18 18 18 18 18 18 18 18 18 18 18 18 18 18 18 18 19 19 19 18 18 18 18 18 18 17 17 17 17 17 17 16 16 16 16 16
19 19 19 19 19 19 18 18 18 18 18 18 18 18 18 18 18 18 18 18 18 18 18 18 18 18 18 18 18 18 18 18 17 17 17 17 17 16 16 16 16 16 16
19 19 19 19 19 18 18 18 18 18 18 18 18 18 18 18 18 18 18 18 17 17 17 18 18 18 18 18 18 17 17 17 17 17 17 17 17 16 16 16 16 16 16
19 19 18 19 18 18 18 18 18 18 18 18 18 18 18 18 17 17 17 17 17 17 17 17 18 18 18 17 17 17 17 17 17 17 17 17 17 16 16 16 16 16 16
18 18 18 18 18 18 18 18 18 18 18 17 17 17 17 17 17 17 17 17 17 17 17 17 17 17 17 17 17 17 17 16 16 16 16 16 16 16 16 16 16 16 15
18 18 18 18 18 17 17 17 17 17 17 17 17 17 17 17 17 17 17 17 17 17 17 16 17 17 17 16 16 16 16 16 16 16 16 16 16 16 16 16 15 15 15
18 18 18 17 17 17 17 17 17 17 17 17 17 16 16 16 17 17 16 16 16 16 16 16 16 16 16 16 16 16 16 16 16 15 16 16 16 16 15 15 15 15 15
17 17 17 17 17 17 17 17 17 17 16 16 16 16 16 16 16 16 16 16 16 16 16 15 15 15 15 15 15 15 15 15 15 15 15 15 15 15 15 15 15 15 15
17 17 17 17 17 16 16 16 16 16 16 16 16 16 15 15 15 15 15 15 15 15 15 15 15 14 15 15 15 15 14 14 14 15 14 14 14 14 14 14 14 14 14
17 17 17 16 16 16 16 16 16 16 16 16 15 15 15 15 15 15 15 15 15 14 14 14 14 14 14 14 14 14 14 14 14 14 14 14 14 14 14 14 14 13 13
16 16 16 16 16 16 16 16 15 15 15 15 15 15 15 14 14 14 14 14 14 14 14 14 13 13 13 13 13 13 13 13 13 13 13 13 13 13 13 13 13 13 13
16 15 15 15 15 15 15 15 15 15 14 14 14 14 14 14 14 14 14 13 13 13 13 13 13 13 13 13 13 13 13 13 12 12 12 12 12 12 12 12 12 12 12
15 15 15 15 15 15 15 15 15 14 14 14 14 13 13 13 13 13 13 13 13 12 12 12 12 12 12 12 12 12 12 12 11 11 11 11 11 11 11 11 11 11 11
Wind_Speed
4 4 4 3 4 5 4 3 2 3 3 2 3 3 4 5 8 12 13 14 14 12 12 11 10 10 10 9 9 9 9 9 9 9 9 9 8 8 8 7 7 7 7
5 4 3 2 2 3 3 3 3 3 2 2 2 1 2 3 6 12 13 13 13 13 12 11 11 10 10 10 9 9 9 9 9 10 9 9 9 8 8 8 8 7 7
6 5 3 2 3 4 4 3 2 2 2 2 2 1 1 3 3 7 12 13 12 13 13 13 12 12 11 11 11 10 10 10 10 11 10 10 10 9 9 9 9 8 8
6 4 3 3 4 4 3 2 1 1 1 1 1 2 2 2 4 6 8 11 13 13 14 15 14 13 13 12 12 12 12 12 12 12 12 11 11 11 11 10 10 10 9
6 4 2 3 4 3 2 3 2 1 1 1 2 3 3 3 4 6 6 9 11 13 15 17 17 16 15 14 14 14 13 13 13 13 13 13 13 13 13 12 12 11 11
6 4 2 4 4 2 2 1 2 0 1 2 3 2 3 3 4 5 6 8 10 13 15 16 16 16 18 17 17 16 15 15 15 15 15 15 14 14 14 14 14 14 13
7 5 2 3 3 2 3 2 2 2 3 3 2 2 3 4 5 4 5 5 6 10 12 15 16 15 16 20 20 18 18 17 17 17 17 16 16 16 16 16 16 16 15
6 7 5 4 4 3 3 3 2 2 3 2 2 1 2 3 3 6 5 5 6 6 7 12 15 15 14 15 19 22 21 20 19 18 18 18 18 18 18 17 18 17 17
8 6 6 5 3 4 3 4 4 4 3 3 3 3 2 3 2 3 5 5 6 5 6 7 11 15 16 15 16 22 24 23 21 20 20 19 19 19 19 19 19 19 19
7 7 6 5 4 3 3 5 5 4 5 4 4 4 4 2 2 2 3 4 5 6 6 8 9 12 15 15 16 19 23 24 23 22 21 20 20 20 20 20 19 19 20
7 7 6 5 4 4 4 4 4 5 4 5 4 3 4 4 5 4 4 3 3 5 6 7 6 8 13 14 14 16 21 23 23 22 21 21 20 20 20 19 19 20 20
5 5 6 4 4 4 4 5 4 6 5 5 5 5 4 4 4 5 5 4 4 5 5 5 6 6 9 12 14 15 19 23 23 23 22 21 20 20 20 19 20 20 20
4 5 5 4 4 4 5 4 5 5 5 6 6 6 5 5 5 4 4 4 4 4 4 4 4 5 8 10 12 15 16 19 20 21 20 20 19 19 19 19 19 19 19
4 4 5 5 5 5 5 4 4 5 5 6 7 6 5 6 5 5 4 4 4 4 4 4 3 4 4 6 9 12 11 17 18 19 18 18 18 18 18 18 18 18 18
4 3 4 5 4 4 4 4 4 5 4 5 6 6 6 5 5 5 4 4 5 5 5 4 3 2 3 3 6 9 9 14 17 18 18 18 18 17 17 17 17 17 17
3 3 4 5 4 4 4 3 4 4 5 5 5 5 5 5 4 4 4 4 4 5 4 3 3 3 2 3 4 5 7 10 14 16 17 17 17 17 17 17 17 17 17
4 4 4 3 3 4 3 3 4 4 4 4 5 5 5 5 4 4 4 3 4 4 6 5 3 3 2 2 1 4 5 6 8 14 15 16 16 16 16 16 17 17 17
3 3 3 3 3 2 2 2 4 4 3 4 4 4 4 4 3 4 4 4 4 4 4 6 4 3 3 3 2 3 4 5 5 9 14 16 16 16 15 15 15 15 15
2 2 2 2 1 1 1 2 3 3 3 3 2 2 3 3 3 3 4 4 3 4 3 4 4 3 3 3 2 3 3 2 5 6 9 12 13 14 14 14 14 14 14
3 2 2 1 1 0 1 2 2 2 1 2 2 2 3 3 4 4 3 3 3 3 3 2 3 3 2 3 2 2 3 2 4 5 3 4 8 12 13 13 13 13 13
2 2 2 1 1 1 2 2 2 1 1 2 2 3 3 5 5 4 3 3 3 2 2 1 2 2 2 2 2 2 3 3 4 3 1 1 2 3 5 8 10 11 12
3 2 1 2 3 3 5 5 4 3 3 3 3 3 3 4 4 4 5 6 5 3 2 2 2 2 3 3 2 3 3 3 3 3 2 2 1 1 2 2 5 8 10
3 2 3 4 5 6 7 7 6 3 4 4 4 4 4 5 5 3 4 5 6 6 4 2 2 3 3 4 3 3 3 3 3 3 3 2 2 2 1 0 1 3 5
3 4 4 4 5 6 8 7 5 4 4 5 6 6 5 6 7 5 4 5 5 7 6 4 3 4 4 4 3 3 3 3 2 3 3 2 3 3 3 1 2 2 2
4 5 5 6 6 7 9 8 5 4 5 5 6 7 6 6 9 8 5 5 5 4 6 7 6 6 7 8 6 4 4 3 3 3 3 2 2 3 2 1 1 2 3
5 6 7 6 6 6 8 9 6 3 4 4 5 6 9 8 9 9 6 5 5 4 4 4 4 4 5 6 8 5 4 3 3 3 4 3 2 3 2 2 1 1 2
Wind_Direction
134 132 131 145 163 155 156 150 134 103 91 72 54 54 72 88 120 130 141 154 156 159 162 165 166 169 169 170 170 169 172 171 172 171 171 171 170 171 172 173 170 168 168
128 129 141 152 146 129 116 107 121 123 117 92 90 86 100 98 113 133 146 161 168 171 176 178 180 182 182 182 183 184 184 184 183 183 183 184 185 185 187 187 185 183 181
134 142 152 177 149 135 128 129 131 136 164 157 160 160 127 121 125 135 156 165 175 184 187 188 189 191 193 195 195 195 196 196 195 195 196 197 198 199 199 199 198 196 195
150 161 167 157 145 149 156 145 194 165 163 152 173 210 164 159 167 173 171 173 177 184 191 196 197 199 202 204 205 204 205 205 204 204 205 207 209 209 208 206 206 205 205
167 181 154 129 151 158 174 192 154 175 183 209 215 207 200 196 190 198 189 187 187 180 183 196 201 204 207 209 211 212 211 211 211 212 214 215 216 216 215 213 213 213 214
177 182 158 160 176 176 173 148 123 175 257 252 259 224 229 205 206 204 202 198 193 194 191 188 195 206 212 213 215 216 216 215 216 218 220 220 220 220 220 218 218 219 221
180 188 199 166 193 187 170 173 163 207 237 243 260 265 255 236 222 214 207 201 200 207 197 184 189 199 205 215 217 217 218 218 219 220 223 223 224 224 223 223 222 224 226
190 195 196 197 193 187 190 202 194 224 246 231 229 245 261 255 248 232 204 200 207 205 203 198 197 200 202 200 212 216 218 221 222 222 223 225 226 226 226 226 227 227 229
197 212 188 205 200 194 198 207 207 215 236 244 229 219 237 243 254 246 227 210 202 201 206 208 210 206 207 204 203 213 216 220 222 224 224 226 227 228 228 229 229 230 230
200 205 201 203 205 213 203 215 213 220 225 243 242 235 244 257 240 263 269 235 220 213 215 218 219 208 208 209 207 208 213 217 221 224 226 227 229 229 229 230 231 233 233
206 208 204 200 206 219 217 224 223 223 230 240 249 247 242 246 235 231 251 257 241 227 224 222 222 212 208 206 207 208 209 213 218 222 225 227 229 230 231 232 234 236 235
208 208 205 200 208 220 226 223 227 228 233 244 256 260 245 237 236 235 238 250 252 247 236 231 220 211 206 203 211 212 206 210 215 219 223 226 229 231 233 234 235 237 236
202 208 211 200 211 217 224 223 227 238 236 244 249 255 258 254 250 246 250 256 260 263 245 236 223 221 217 207 207 211 204 203 211 217 223 227 229 231 232 233 235 237 237
211 199 199 204 210 217 228 222 230 234 234 238 247 248 257 260 258 253 247 254 269 270 267 255 228 221 228 218 203 200 203 203 209 215 220 225 229 231 232 233 233 234 235
223 197 192 210 213 222 232 222 235 240 239 237 248 251 252 262 264 261 257 239 238 258 264 261 262 244 245 229 205 201 201 205 209 213 217 221 225 228 230 231 231 232 234
216 203 201 208 212 221 227 229 244 244 247 249 251 254 252 258 261 259 260 252 235 233 254 263 273 273 262 254 223 224 219 207 211 216 220 223 225 226 226 227 228 230 232
208 207 203 209 218 227 231 233 250 246 248 256 259 260 262 261 262 265 261 257 248 233 247 262 264 278 267 264 242 253 240 212 215 219 220 223 225 226 226 226 228 229 230
203 196 205 213 225 228 240 249 264 271 265 270 273 280 289 287 276 272 271 266 261 249 241 259 272 274 281 268 248 253 258 245 239 225 220 223 225 225 224 224 227 228 229
176 183 193 196 228 278 279 278 275 281 282 284 293 304 313 320 313 294 282 283 279 275 257 252 269 278 282 293 289 283 283 280 273 248 222 222 223 222 223 224 226 228 229
167 164 169 168 162 1 340 305 289 294 317 337 356 9 12 9 351 332 314 319 307 300 292 279 276 284 282 289 301 295 300 295 279 272 260 220 217 220 223 224 225 226 226
139 122 130 144 154 79 339 326 300 330 1 353 5 16 34 35 29 13 359 355 341 329 328 323 302 303 311 325 319 296 295 294 280 270 269 250 208 210 223 229 230 228 227
94 94 83 75 58 36 19 25 28 26 24 25 14 8 24 35 30 42 45 39 31 17 359 350 337 322 324 323 327 323 315 314 300 326 315 290 279 244 195 209 218 217 223
92 84 78 80 71 49 39 38 36 47 43 32 21 16 20 13 23 35 52 54 42 35 28 4 352 346 345 351 347 340 337 325 311 317 324 313 346 347 338 31 145 184 214
87 79 74 76 74 51 38 36 38 61 57 51 40 31 31 22 18 16 43 52 49 40 34 38 33 14 14 0 354 335 318 318 316 352 3 325 339 333 334 71 120 140 189
87 81 74 67 65 50 36 32 38 70 70 56 47 43 38 35 16 26 48 52 49 44 48 56 60 51 41 30 21 12 2 359 342 348 3 337 333 325 308 298 317 254 262
92 85 78 70 67 54 44 42 41 69 69 62 55 51 46 42 30 33 42 44 39 22 25 30 38 33 37 34 31 23 8 4 352 349 356 350 341 342 322 325 351 337 313
Height
1564 1565 1566 1566 1567 1568 1569 1570 1571 1572 1572 1573 1573 1574 1575 1575 1575 1575 1575 1576 1577 1577 1578 1579 1579 1580 1581 1582 1583 1584 1585 1586 1587 1588 1589 1590 1591 1592 1592 1593 1594 1595 1596
1565 1566 1566 1567 1568 1569 1570 1571 1571 1572 1573 1573 1574 1575 1575 1576 1576 1575 1575 1576 1577 1577 1578 1578 1579 1580 1581 1582 1582 1584 1584 1585 1586 1587 1588 1589 1590 1591 1592 1593 1593 1594 1595
1565 1566 1567 1568 1569 1570 1571 1571 1572 1572 1573 1574 1574 1575 1575 1576 1576 1576 1576 1576 1577 1577 1577 1578 1579 1579 1580 1581 1582 1583 1584 1585 1585 1586 1587 1588 1589 1590 1591 1592 1593 1593 1594
1565 1566 1567 1568 1569 1570 1571 1572 1572 1572 1573 1574 1574 1575 1575 1575 1576 1576 1576 1576 1576 1576 1577 1577 1578 1579 1579 1580 1581 1582 1582 1583 1584 1585 1586 1587 1588 1589 1589 1590 1591 1592 1593
1564 1565 1567 1568 1569 1570 1571 1572 1572 1572 1573 1573 1574 1574 1574 1574 1575 1575 1575 1575 1576 1576 1576 1576 1577 1577 1578 1579 1579 1580 1581 1582 1582 1583 1584 1585 1586 1587 1588 1588 1589 1590 1591
1564 1565 1566 1567 1568 1569 1570 1571 1571 1571 1572 1572 1573 1573 1573 1573 1573 1574 1574 1574 1574 1575 1575 1575 1575 1576 1576 1577 1578 1578 1579 1580 1580 1581 1582 1583 1584 1584 1585 1586 1587 1588 1588
1563 1564 1565 1566 1567 1568 1569 1569 1570 1570 1570 1571 1571 1572 1572 1572 1572 1572 1572 1573 1573 1573 1574 1573 1573 1574 1574 1575 1575 1576 1577 1577 1578 1579 1579 1580 1581 1582 1582 1583 1584 1585 1586
1562 1563 1563 1564 1565 1566 1567 1567 1568 1568 1568 1569 1570 1570 1570 1571 1569 1570 1570 1570 1570 1571 1571 1572 1571 1571 1572 1572 1573 1573 1574 1574 1575 1576 1576 1577 1578 1579 1579 1580 1581 1581 1582
1559 1560 1561 1563 1563 1564 1564 1565 1566 1566 1567 1567 1568 1569 1568 1567 1567 1567 1567 1568 1568 1568 1568 1569 1569 1569 1569 1569 1570 1570 1571 1571 1572 1572 1573 1574 1574 1575 1576 1576 1577 1578 1579
1557 1558 1559 1560 1561 1562 1562 1563 1563 1564 1565 1565 1565 1565 1566 1566 1566 1565 1565 1565 1566 1566 1566 1566 1566 1566 1566 1566 1567 1567 1568 1568 1569 1569 1569 1570 1570 1571 1572 1572 1573 1574 1575
1555 1556 1557 1558 1558 1559 1560 1560 1561 1561 1562 1562 1563 1563 1562 1563 1563 1563 1562 1562 1563 1563 1562 1563 1563 1563 1563 1562 1563 1563 1564 1564 1565 1565 1566 1566 1567 1567 1568 1568 1569 1569 1570
1553 1553 1555 1555 1556 1556 1557 1557 1558 1558 1559 1559 1559 1560 1560 1560 1559 1560 1559 1559 1559 1559 1559 1559 1559 1559 1559 1559 1559 1559 1559 1560 1561 1561 1562 1562 1562 1563 1563 1564 1564 1565 1565
1550 1550 1552 1552 1552 1553 1553 1554 1554 1555 1555 1556 1556 1556 1556 1556 1556 1557 1556 1556 1556 1556 1555 1555 1555 1555 1555 1555 1555 1555 1555 1556 1556 1557 1557 1557 1558 1558 1558 1559 1559 1560 1560
1547 1548 1549 1549 1549 1550 1550 1551 1551 1551 1552 1552 1552 1552 1552 1552 1553 1553 1553 1553 1552 1552 1552 1551 1551 1551 1551 1551 1551 1551 1551 1551 1551 1552 1552 1552 1553 1553 1553 1554 1554 1555 1555
1545 1545 1545 1545 1546 1547 1547 1548 1548 1548 1548 1548 1548 1548 1548 1548 1548 1548 1548 1549 1549 1548 1547 1547 1548 1547 1547 1547 1546 1547 1546 1546 1547 1547 1547 1547 1547 1548 1548 1548 1548 1549 1549
1541 1542 1542 1542 1543 1544 1544 1544 1544 1545 1545 1545 1545 1545 1545 1544 1544 1544 1544 1544 1544 1545 1543 1543 1543 1543 1543 1542 1542 1542 1542 1542 1542 1542 1542 1542 1542 1542 1542 1542 1542 1543 1544
1537 1538 1539 1540 1540 1541 1541 1541 1541 1542 1542 1542 1541 1541 1541 1540 1540 1540 1540 1540 1540 1540 1539 1539 1540 1539 1539 1538 1537 1537 1538 1537 1537 1537 1537 1537 1537 1537 1537 1537 1537 1538 1538
1534 1535 1536 1537 1538 1538 1538 1538 1538 1539 1539 1538 1538 1538 1537 1537 1536 1536 1536 1535 1535 1536 1536 1535 1535 1535 1535 1534 1534 1533 1533 1533 1533 1532 1532 1532 1532 1532 1532 1532 1532 1532 1532
1531 1532 1534 1534 1535 1535 1536 1536 1536 1536 1536 1536 1536 1535 1534 1534 1533 1532 1532 1531 1531 1531 1531 1531 1530 1531 1531 1531 1530 1530 1529 1529 1529 1528 1528 1527 1527 1527 1527 1527 1527 1527 1527
1529 1530 1532 1532 1533 1533 1533 1534 1534 1534 1534 1534 1533 1533 1532 1531 1530 1529 1529 1528 1528 1528 1528 1527 1527 1527 1527 1527 1526 1526 1525 1525 1525 1525 1524 1523 1523 1522 1522 1522 1522 1521 1521
1528 1529 1530 1530 1531 1531 1532 1532 1532 1532 1532 1531 1531 1531 1530 1529 1528 1527 1526 1525 1525 1525 1525 1524 1524 1524 1523 1523 1523 1523 1522 1521 1521 1521 1520 1519 1518 1518 1517 1517 1517 1516 1516
1527 1527 1528 1529 1529 1529 1530 1530 1531 1530 1530 1529 1529 1529 1528 1528 1527 1526 1525 1524 1523 1523 1522 1522 1522 1521 1521 1521 1521 1520 1519 1518 1517 1518 1517 1516 1515 1514 1513 1513 1512 1512 1512
1525 1526 1526 1527 1527 1528 1529 1529 1529 1529 1528 1528 1527 1527 1527 1526 1525 1524 1523 1522 1522 1521 1521 1521 1520 1519 1519 1518 1518 1517 1516 1515 1514 1514 1513 1512 1512 1511 1510 1509 1509 1508 1508
1525 1525 1525 1526 1526 1527 1528 1528 1528 1528 1527 1527 1527 1526 1526 1525 1524 1523 1522 1521 1521 1520 1520 1519 1519 1518 1517 1516 1516 1515 1514 1513 1512 1512 1511 1510 1509 1508 1507 1507 1506 1505 1504
1525 1525 1525 1525 1526 1526 1527 1527 1527 1527 1527 1527 1526 1526 1525 1524 1524 1523 1522 1521 1520 1520 1519 1519 1518 1517 1516 1515 1514 1514 1512 1511 1510 1510 1509 1508 1506 1505 1504 1503 1503 1502 1501
1525 1525 1525 1526 1526 1526 1527 1527 1527 1527 1527 1527 1526 1526 1525 1524 1524 1523 1521 1520 1519 1519 1519 1519 1518 1517 1516 1515 1514 1513 1512 1511 1509 1509 1508 1507 1505 1503 1502 1501 1500 1499 1498